| time (UTC) | temp F | wind direction | speed knots | gust knots | rain 1hr in | rain 24hr in | rain mn in | humidity % | barometer mb |
| 20260505040241 | 44 | 91 | 0.0 | 0.0 | 0.00 | 0.00 | 0.00 | 69 | 1016.7 |
| 20260505040215 | 44 | 91 | 0.0 | 0.0 | 0.00 | 0.00 | 0.00 | 68 | 1016.7 |
| 20260505035230 | 44 | 91 | 0.0 | 0.0 | 0.00 | 0.00 | 0.00 | 67 | 1016.6 |
| 20260505034953 | 45 | 91 | 0.0 | 0.0 | 0.00 | 0.00 | 0.00 | 66 | 1016.6 |
| 20260505034227 | 45 | 91 | 0.0 | 0.0 | 0.00 | 0.00 | 0.00 | 65 | 1016.6 |
| 20260505033726 | 46 | 91 | 0.0 | 0.0 | 0.00 | 0.00 | 0.00 | 63 | 1016.5 |
| 20260505033216 | 47 | 91 | 0.0 | 0.0 | 0.00 | 0.00 | 0.00 | 62 | 1016.5 |
| 20260505032709 | 48 | 91 | 0.0 | 0.0 | 0.00 | 0.00 | 0.00 | 60 | 1016.3 |
| 20260505032200 | 48 | 91 | 0.0 | 0.0 | 0.00 | 0.00 | 0.00 | 58 | 1016.3 |
| 20260505031919 | 49 | 91 | 0.0 | 0.0 | 0.00 | 0.00 | 0.00 | 57 | 1016.4 |
| 20260505031146 | 49 | 91 | 0.0 | 0.0 | 0.00 | 0.00 | 0.00 | 58 | 1016.4 |
| 20260505030637 | 49 | 91 | 0.0 | 0.0 | 0.00 | 0.00 | 0.00 | 56 | 1016.3 |
| 20260505030137 | 49 | 91 | 0.0 | 0.0 | 0.00 | 0.00 | 0.00 | 55 | 1016.0 |
| 20260505025637 | 50 | 91 | 0.0 | 1.7 | 0.00 | 0.00 | 0.00 | 51 | 1016.2 |
| 20260505025357 | 50 | 91 | 0.0 | 1.7 | 0.00 | 0.00 | 0.00 | 50 | 1016.3 |
| 20260505024628 | 50 | 114 | 0.0 | 0.0 | 0.00 | 0.00 | 0.00 | 51 | 1016.3 |
| 20260505024123 | 50 | 114 | 0.0 | 0.0 | 0.00 | 0.00 | 0.00 | 50 | 1016.2 |
| 20260505023622 | 51 | 114 | 0.0 | 2.6 | 0.00 | 0.00 | 0.00 | 49 | 1016.3 |
| 20260505023347 | 51 | 114 | 0.0 | 2.6 | 0.00 | 0.00 | 0.00 | 49 | 1016.3 |
| 20260505022626 | 51 | 142 | 0.0 | 1.7 | 0.00 | 0.00 | 0.00 | 49 | 1016.3 |
| 20260505022121 | 51 | 142 | 0.0 | 2.6 | 0.00 | 0.00 | 0.00 | 49 | 1016.4 |
| 20260505021559 | 51 | 144 | 0.0 | 5.2 | 0.00 | 0.00 | 0.00 | 49 | 1016.2 |
| 20260505021058 | 51 | 143 | 0.0 | 5.2 | 0.00 | 0.00 | 0.00 | 48 | 1016.3 |
| 20260505020555 | 51 | 159 | 1.7 | 7.0 | 0.00 | 0.00 | 0.00 | 48 | 1016.3 |
| 20260505020054 | 52 | 116 | 0.0 | 7.0 | 0.00 | 0.00 | 0.00 | 49 | 1016.4 |
| 20260505015548 | 52 | 111 | 0.9 | 3.5 | 0.00 | 0.00 | 0.00 | 48 | 1016.4 |
| 20260505015039 | 52 | 113 | 0.0 | 2.6 | 0.00 | 0.00 | 0.00 | 48 | 1016.3 |
| 20260505014542 | 52 | 111 | 0.0 | 7.0 | 0.00 | 0.00 | 0.00 | 49 | 1016.4 |
| 20260505014039 | 52 | 110 | 0.0 | 7.0 | 0.00 | 0.00 | 0.00 | 47 | 1016.4 |
| 20260505013747 | 53 | 215 | 1.7 | 7.8 | 0.00 | 0.00 | 0.00 | 47 | 1016.3 |
| 20260505013029 | 53 | 46 | 1.7 | 7.8 | 0.00 | 0.00 | 0.00 | 47 | 1016.3 |
| 20260505012529 | 53 | 88 | 0.9 | 7.0 | 0.00 | 0.00 | 0.00 | 48 | 1016.3 |
| 20260505012029 | 53 | 86 | 0.0 | 4.3 | 0.00 | 0.00 | 0.00 | 47 | 1016.3 |
| 20260505011758 | 53 | 117 | 0.9 | 7.8 | 0.00 | 0.00 | 0.00 | 48 | 1016.3 |
| 20260505011027 | 53 | 119 | 2.6 | 7.8 | 0.00 | 0.00 | 0.00 | 47 | 1016.3 |
| 20260505010525 | 53 | 123 | 0.9 | 5.2 | 0.00 | 0.00 | 0.00 | 47 | 1016.3 |
| 20260505010249 | 53 | 152 | 0.9 | 7.0 | 0.00 | 0.00 | 0.00 | 48 | 1016.4 |
| 20260505005525 | 53 | 110 | 1.7 | 8.7 | 0.00 | 0.00 | 0.00 | 47 | 1016.3 |
| 20260505005025 | 53 | 169 | 2.6 | 8.7 | 0.00 | 0.00 | 0.00 | 47 | 1016.4 |
| 20260505004758 | 53 | 115 | 1.7 | 10.4 | 0.00 | 0.00 | 0.00 | 46 | 1016.3 |
| 20260505004021 | 54 | 90 | 2.6 | 10.4 | 0.00 | 0.00 | 0.00 | 47 | 1016.4 |
| 20260505003521 | 54 | 110 | 1.7 | 6.1 | 0.00 | 0.00 | 0.00 | 47 | 1016.3 |
| 20260505003023 | 54 | 96 | 0.9 | 8.7 | 0.00 | 0.00 | 0.00 | 47 | 1016.2 |
| 20260505002516 | 54 | 99 | 0.9 | 9.6 | 0.00 | 0.00 | 0.00 | 46 | 1016.3 |
| 20260505002237 | 55 | 109 | 1.7 | 9.6 | 0.00 | 0.00 | 0.00 | 46 | 1016.3 |
| 20260505001511 | 55 | 92 | 0.9 | 7.0 | 0.00 | 0.00 | 0.00 | 46 | 1016.3 |
| 20260505001002 | 55 | 159 | 2.6 | 7.0 | 0.00 | 0.00 | 0.00 | 46 | 1016.3 |
| 20260505000502 | 55 | 134 | 0.9 | 8.7 | 0.00 | 0.00 | 0.00 | 47 | 1016.3 |
| 20260504235947 | 55 | 117 | 3.5 | 8.7 | 0.00 | 0.00 | 0.00 | 46 | 1016.2 |
| 20260504235447 | 55 | 222 | 1.7 | 7.0 | 0.00 | 0.00 | 0.00 | 46 | 1016.0 |
| 20260504234947 | 55 | 84 | 0.0 | 7.8 | 0.00 | 0.00 | 0.00 | 47 | 1016.0 |
| 20260504234448 | 55 | 133 | 0.0 | 7.8 | 0.00 | 0.00 | 0.00 | 47 | 1016.2 |
| 20260504233947 | 55 | 295 | 0.0 | 6.1 | 0.00 | 0.00 | 0.00 | 47 | 1016.0 |
| 20260504233707 | 55 | 345 | 0.9 | 7.0 | 0.00 | 0.00 | 0.00 | 47 | 1015.9 |
| 20260504232942 | 55 | 115 | 0.9 | 7.0 | 0.00 | 0.00 | 0.00 | 46 | 1015.9 |
| 20260504232443 | 55 | 101 | 0.9 | 5.2 | 0.00 | 0.00 | 0.00 | 47 | 1016.0 |
| 20260504231943 | 55 | 190 | 0.9 | 5.2 | 0.00 | 0.00 | 0.00 | 47 | 1016.0 |
| 20260504231438 | 55 | 233 | 0.0 | 5.2 | 0.00 | 0.00 | 0.00 | 47 | 1016.0 |
| 20260504231417 | 55 | 102 | 0.9 | 8.7 | 0.00 | 0.00 | 0.00 | 47 | 1016.0 |
| 20260504230433 | 56 | 117 | 3.5 | 8.7 | 0.00 | 0.00 | 0.00 | 45 | 1016.0 |
| 20260504225928 | 56 | 122 | 1.7 | 5.2 | 0.00 | 0.00 | 0.00 | 45 | 1016.2 |
| 20260504225431 | 56 | 119 | 0.9 | 6.1 | 0.00 | 0.00 | 0.00 | 46 | 1016.0 |
| 20260504224929 | 56 | 166 | 0.0 | 12.2 | 0.00 | 0.00 | 0.00 | 46 | 1015.9 |
| 20260504224655 | 56 | 118 | 4.3 | 12.2 | 0.00 | 0.00 | 0.00 | 46 | 1015.9 |
| 20260504223931 | 56 | 214 | 3.5 | 7.8 | 0.00 | 0.00 | 0.00 | 47 | 1015.9 |
| 20260504223429 | 56 | 120 | 2.6 | 7.8 | 0.00 | 0.00 | 0.00 | 44 | 1015.8 |
| 20260504223145 | 57 | 63 | 2.6 | 7.0 | 0.00 | 0.00 | 0.00 | 45 | 1015.9 |
| 20260504222425 | 57 | 279 | 2.6 | 7.0 | 0.00 | 0.00 | 0.00 | 44 | 1016.0 |
| 20260504221925 | 57 | 138 | 0.9 | 7.0 | 0.00 | 0.00 | 0.00 | 45 | 1015.9 |
| 20260504221425 | 58 | 97 | 1.7 | 8.7 | 0.00 | 0.00 | 0.00 | 44 | 1015.9 |
| 20260504220925 | 58 | 81 | 2.6 | 10.4 | 0.00 | 0.00 | 0.00 | 44 | 1015.9 |
| 20260504220426 | 58 | 126 | 1.7 | 10.4 | 0.00 | 0.00 | 0.00 | 43 | 1015.9 |
| 20260504215921 | 59 | 118 | 2.6 | 10.4 | 0.00 | 0.00 | 0.00 | 42 | 1015.8 |
| 20260504215420 | 60 | 148 | 0.9 | 10.4 | 0.00 | 0.00 | 0.00 | 42 | 1015.9 |
| 20260504214916 | 61 | 121 | 1.7 | 8.7 | 0.00 | 0.00 | 0.00 | 42 | 1015.9 |
| 20260504214416 | 61 | 95 | 1.7 | 8.7 | 0.00 | 0.00 | 0.00 | 40 | 1015.7 |
| 20260504214136 | 61 | 52 | 1.7 | 12.2 | 0.00 | 0.00 | 0.00 | 42 | 1015.6 |
| 20260504213416 | 61 | 98 | 2.6 | 12.2 | 0.00 | 0.00 | 0.00 | 41 | 1015.6 |
| 20260504212916 | 61 | 142 | 0.9 | 8.7 | 0.00 | 0.00 | 0.00 | 43 | 1015.4 |
| 20260504212416 | 61 | 124 | 1.7 | 7.8 | 0.00 | 0.00 | 0.00 | 40 | 1015.5 |
| 20260504211911 | 62 | 99 | 1.7 | 6.1 | 0.00 | 0.00 | 0.00 | 41 | 1015.4 |
| 20260504211412 | 61 | 125 | 1.7 | 6.1 | 0.00 | 0.00 | 0.00 | 42 | 1015.4 |
| 20260504210912 | 61 | 99 | 0.9 | 7.0 | 0.00 | 0.00 | 0.00 | 43 | 1015.4 |
| 20260504210412 | 60 | 27 | 1.7 | 7.0 | 0.00 | 0.00 | 0.00 | 42 | 1015.4 |
| 20260504210134 | 61 | 155 | 0.9 | 9.6 | 0.00 | 0.00 | 0.00 | 41 | 1015.4 |
| 20260504205417 | 61 | 34 | 1.7 | 9.6 | 0.00 | 0.00 | 0.00 | 41 | 1015.4 |
| 20260504205127 | 61 | 114 | 1.7 | 7.0 | 0.00 | 0.00 | 0.00 | 41 | 1015.3 |
| 20260504204357 | 61 | 90 | 2.6 | 7.0 | 0.00 | 0.00 | 0.00 | 40 | 1015.3 |
| 20260504203901 | 62 | 209 | 3.5 | 7.8 | 0.00 | 0.00 | 0.00 | 40 | 1015.3 |
| 20260504203400 | 62 | 113 | 2.6 | 7.8 | 0.00 | 0.00 | 0.00 | 40 | 1015.3 |
| 20260504202858 | 62 | 109 | 0.9 | 7.8 | 0.00 | 0.00 | 0.00 | 40 | 1015.3 |
| 20260504202358 | 62 | 91 | 1.7 | 9.6 | 0.00 | 0.00 | 0.00 | 42 | 1015.3 |
| 20260504202353 | 62 | 352 | 3.5 | 9.6 | 0.00 | 0.00 | 0.00 | 44 | 1015.4 |
| 20260504201613 | 62 | 0 | 2.6 | 10.4 | 0.00 | 0.00 | 0.00 | 41 | 1015.3 |
| 20260504200854 | 62 | 214 | 0.9 | 10.4 | 0.00 | 0.00 | 0.00 | 43 | 1015.1 |
| 20260504200841 | 61 | 92 | 1.7 | 10.4 | 0.00 | 0.00 | 0.00 | 41 | 1015.1 |
| 20260504195854 | 61 | 96 | 1.7 | 7.0 | 0.00 | 0.00 | 0.00 | 42 | 1015.1 |
| 20260504195354 | 61 | 30 | 1.7 | 10.4 | 0.00 | 0.00 | 0.00 | 42 | 1015.3 |
| 20260504194850 | 61 | 112 | 0.9 | 10.4 | 0.00 | 0.00 | 0.00 | 42 | 1015.1 |
| 20260504194350 | 61 | 144 | 3.5 | 9.6 | 0.00 | 0.00 | 0.00 | 40 | 1015.1 |
| 20260504194108 | 61 | 98 | 2.6 | 9.6 | 0.00 | 0.00 | 0.00 | 42 | 1015.1 |
| 20260504193613 | 61 | 130 | 2.6 | 8.7 | 0.00 | 0.00 | 0.00 | 41 | 1015.3 |
| 20260504192851 | 61 | 288 | 0.9 | 9.6 | 0.00 | 0.00 | 0.00 | 42 | 1015.1 |
| 20260504192346 | 61 | 168 | 0.9 | 9.6 | 0.00 | 0.00 | 0.00 | 40 | 1015.1 |
| 20260504191841 | 61 | 115 | 0.9 | 6.1 | 0.00 | 0.00 | 0.00 | 43 | 1015.1 |
| 20260504191340 | 61 | 92 | 0.9 | 6.1 | 0.00 | 0.00 | 0.00 | 40 | 1015.3 |
| 20260504190841 | 61 | 159 | 0.0 | 7.0 | 0.00 | 0.00 | 0.00 | 42 | 1015.3 |
| 20260504190342 | 61 | 88 | 1.7 | 7.0 | 0.00 | 0.00 | 0.00 | 43 | 1015.4 |
| 20260504190105 | 61 | 283 | 0.9 | 7.8 | 0.00 | 0.00 | 0.00 | 41 | 1015.5 |
| 20260504185341 | 60 | 117 | 0.0 | 7.8 | 0.00 | 0.00 | 0.00 | 43 | 1015.5 |
| 20260504184837 | 60 | 90 | 1.7 | 6.1 | 0.00 | 0.00 | 0.00 | 43 | 1015.4 |
| 20260504184337 | 60 | 94 | 0.9 | 7.8 | 0.00 | 0.00 | 0.00 | 45 | 1015.5 |
| 20260504183837 | 60 | 0 | 0.0 | 7.8 | 0.00 | 0.00 | 0.00 | 45 | 1015.6 |
| 20260504183337 | 60 | 117 | 2.6 | 7.0 | 0.00 | 0.00 | 0.00 | 43 | 1015.6 |
| 20260504182840 | 60 | 52 | 1.7 | 6.1 | 0.00 | 0.00 | 0.00 | 44 | 1015.6 |
| 20260504182335 | 60 | 78 | 0.9 | 6.1 | 0.00 | 0.00 | 0.00 | 43 | 1015.6 |
| 20260504182053 | 60 | 150 | 0.9 | 6.1 | 0.00 | 0.00 | 0.00 | 43 | 1015.6 |
| 20260504181322 | 60 | 109 | 0.9 | 6.1 | 0.00 | 0.00 | 0.00 | 44 | 1015.6 |
| 20260504180823 | 60 | 94 | 0.0 | 8.7 | 0.00 | 0.00 | 0.00 | 42 | 1015.5 |
| 20260504180318 | 60 | 111 | 2.6 | 8.7 | 0.00 | 0.00 | 0.00 | 43 | 1015.6 |
| 20260504175814 | 60 | 105 | 0.9 | 7.0 | 0.00 | 0.00 | 0.00 | 42 | 1015.6 |
| 20260504175536 | 60 | 97 | 2.6 | 7.0 | 0.00 | 0.00 | 0.00 | 45 | 1015.7 |
| 20260504174813 | 59 | 229 | 1.7 | 7.0 | 0.00 | 0.00 | 0.00 | 42 | 1015.6 |
| 20260504174309 | 59 | 117 | 1.7 | 6.1 | 0.00 | 0.00 | 0.00 | 43 | 1015.8 |
| 20260504174031 | 59 | 88 | 1.7 | 7.0 | 0.00 | 0.00 | 0.00 | 44 | 1015.7 |
| 20260504173259 | 58 | 60 | 0.9 | 7.0 | 0.00 | 0.00 | 0.00 | 47 | 1015.7 |
| 20260504172801 | 58 | 63 | 1.7 | 6.1 | 0.00 | 0.00 | 0.00 | 46 | 1015.7 |
| 20260504172259 | 58 | 106 | 1.7 | 7.8 | 0.00 | 0.00 | 0.00 | 48 | 1015.8 |
| 20260504171759 | 57 | 117 | 1.7 | 7.8 | 0.00 | 0.00 | 0.00 | 47 | 1015.9 |
| 20260504171259 | 57 | 168 | 0.0 | 4.3 | 0.00 | 0.00 | 0.00 | 48 | 1015.9 |
| 20260504170755 | 57 | 105 | 0.9 | 4.3 | 0.00 | 0.00 | 0.00 | 49 | 1015.8 |
| 20260504170255 | 57 | 180 | 0.0 | 2.6 | 0.00 | 0.00 | 0.00 | 50 | 1015.8 |
| 20260504160232 | 56 | 55 | 1.7 | 3.5 | 0.00 | 0.00 | 0.00 | 50 | 1015.9 |
| 20260504150947 | 54 | 112 | 0.0 | 3.5 | 0.00 | 0.00 | 0.00 | 52 | 1015.9 |
| 20260504150218 | 53 | 101 | 0.0 | 2.6 | 0.00 | 0.00 | 0.00 | 54 | 1016.0 |
| 20260504141200 | 47 | 109 | 0.0 | 0.9 | 0.00 | 0.00 | 0.00 | 65 | 1016.0 |
| 20260504140700 | 47 | 106 | 0.0 | 0.9 | 0.00 | 0.00 | 0.00 | 68 | 1016.0 |
| 20260504140155 | 46 | 106 | 0.0 | 0.9 | 0.00 | 0.00 | 0.00 | 72 | 1016.2 |
| 20260504130611 | 42 | 169 | 0.0 | 0.0 | 0.00 | 0.00 | 0.00 | 77 | 1015.8 |
| 20260504130112 | 42 | 169 | 0.0 | 0.0 | 0.00 | 0.00 | 0.00 | 76 | 1015.7 |
| 20260504110458 | 46 | 169 | 0.0 | 1.7 | 0.00 | 0.00 | 0.00 | 65 | 1015.1 |
| 20260504100603 | 50 | 105 | 0.0 | 3.5 | 0.00 | 0.00 | 0.00 | 54 | 1014.7 |
| 20260504100105 | 50 | 118 | 0.0 | 2.6 | 0.00 | 0.00 | 0.00 | 53 | 1014.7 |
| 20260504081807 | 53 | 116 | 0.0 | 4.3 | 0.00 | 0.00 | 0.00 | 49 | 1013.8 |
| 20260504081259 | 53 | 342 | 0.0 | 5.2 | 0.00 | 0.00 | 0.00 | 49 | 1013.8 |
| 20260504080800 | 53 | 124 | 0.0 | 7.0 | 0.00 | 0.00 | 0.00 | 49 | 1013.8 |
| 20260504080523 | 53 | 121 | 1.7 | 7.0 | 0.00 | 0.00 | 0.00 | 51 | 1013.8 |
| 20260504060153 | 49 | 288 | 0.0 | 1.7 | 0.00 | 0.00 | 0.00 | 75 | 1011.8 |
| 20260504050615 | 50 | 315 | 0.0 | 0.0 | 0.00 | 0.00 | 0.00 | 76 | 1011.1 |
| 20260504050340 | 50 | 315 | 0.0 | 1.7 | 0.00 | 0.00 | 0.00 | 76 | 1010.9 |
| 20260504045616 | 50 | 315 | 0.0 | 1.7 | 0.00 | 0.00 | 0.00 | 74 | 1010.9 |
| 20260504045111 | 51 | 315 | 0.0 | 0.0 | 0.00 | 0.00 | 0.00 | 74 | 1010.8 |
| 20260504044824 | 51 | 315 | 0.0 | 0.0 | 0.00 | 0.00 | 0.00 | 73 | 1010.7 |
| 20260504044056 | 51 | 315 | 0.0 | 0.0 | 0.00 | 0.00 | 0.00 | 74 | 1010.7 |
| 20260504043557 | 51 | 315 | 0.0 | 0.0 | 0.00 | 0.00 | 0.00 | 75 | 1010.7 |
| 20260504043055 | 51 | 315 | 0.0 | 0.9 | 0.00 | 0.00 | 0.00 | 74 | 1010.8 |
| 20260504042557 | 52 | 315 | 0.0 | 0.9 | 0.00 | 0.00 | 0.00 | 74 | 1010.8 |
| 20260504042052 | 52 | 315 | 0.0 | 1.7 | 0.00 | 0.00 | 0.00 | 74 | 1010.9 |
| 20260504041542 | 53 | 315 | 0.0 | 1.7 | 0.00 | 0.00 | 0.00 | 71 | 1010.7 |
| 20260504041042 | 53 | 315 | 0.0 | 0.0 | 0.00 | 0.00 | 0.00 | 70 | 1010.8 |
| 20260504040544 | 53 | 315 | 0.0 | 1.7 | 0.00 | 0.00 | 0.00 | 72 | 1010.6 |